Tracking 35331 objects as of 13-Sep-2026
HD Live streaming from Space Station
objects crossing your sky now

STARLINK-35557

Track STARLINK-35557 now!
10-day predictions
STARLINK-35557 is classified as:


NORAD ID: 66237
Int'l Code: 2025-245D
Launch date: October 29, 2025
Source: United States (US)
Launch site: AIR FORCE EASTERN TEST RANGE (AFETR)
Your satellite tracking list
Your tracking list is empty




NASA's NSSDC Master Catalog

Two Line Element Set (TLE):
1 66237U 25245D   26256.66497986  .00023293  00000-0  69840-3 0  9997
2 66237  53.1578 126.0014 0001392 106.9151 253.2004 15.34398626 50106
Source of the keplerian elements: AFSPC